• Join FlightAware (Why Join?)
  • Login
  • US Flag GB Flag 
10:48 EDT


 

Airport Tracker/Info


-or-


 

Live Flight TrackerFlight Track Log ✈ N27XP ✈ 26-Apr-2013 ✈ KSOP - KTEB

Flight Track Log - Related Links

Times and Time Zones

All times are in EDT time to prevent confusion due to time zone crossing. See the N27XP flight status page for this flight to view local times or setup timezone preferences in your user account.

Time Position Orientation Groundspeed Altitude Reporting Facility
EDT Latitude Longitude Course Direction KTS MPH feet Rate Location/Type
11:50 35.3269 -79.4872 61° Northeast 256 295 5,800  Level Washington Center
11:51 35.3817 -79.4744 11° North 247 284 8,000 1,620 Climbing Washington Center
11:51 35.4508 -79.4600 10° North 280 322 8,700 540 Climbing Washington Center
11:52 35.5308 -79.4433 10° North 287 330 9,100 360 Climbing Washington Center
11:53 35.6108 -79.4217 12° North 302 348 9,500 600 Climbing Washington Center
11:54 35.6028 -79.4263 64° Northeast  Level FlightAware Approximate
11:55 35.6476 -79.3179 61° Northeast  Level FlightAware Approximate
11:55 35.6792 -79.3139 33° Northeast  Level FlightAware Approximate
11:55 35.7586 -79.2983 33° Northeast 345 397 11,000  Level Washington Center
11:57 35.8397 -79.2356 32° Northeast 354 407 11,000  Level Washington Center
11:57 35.9042 -79.1794 35° Northeast 354 407 11,000  Level Washington Center
11:58 35.9231 -79.1700 22° Northeast 351 404 11,000  Level Washington Center
11:58 35.9703 -79.1261 37° Northeast 386 444 11,000  Level Washington Center
11:59 36.0622 -79.0556 32° Northeast 378 435 11,000  Level Washington Center
12:00 36.1328 -78.9944 35° Northeast 357 411 11,000  Level Washington Center
12:01 36.2203 -78.9236 33° Northeast 346 398 11,000  Level Washington Center
12:02 36.2950 -78.8597 35° Northeast 346 398 11,000  Level Washington Center
12:03 36.3825 -78.7886 33° Northeast 346 398 11,000  Level Washington Center
12:04 36.4656 -78.7275 31° Northeast 346 398 11,000  Level Washington Center
12:05 36.5444 -78.6583 35° Northeast 346 398 11,000  Level Washington Center
12:06 36.6256 -78.5914 34° Northeast 346 398 11,000  Level Washington Center
12:07 36.7067 -78.5194 35° Northeast 346 398 11,000  Level Washington Center
12:08 36.7811 -78.4600 33° Northeast 346 398 11,000  Level Washington Center
12:09 36.8597 -78.3931 34° Northeast 346 398 11,000  Level Washington Center
12:10 36.9408 -78.3231 35° Northeast 346 398 11,000  Level Washington Center
12:11 37.0256 -78.2583 31° Northeast 346 398 11,000  Level Washington Center
12:12 37.1128 -78.1808 35° Northeast 346 398 11,000  Level Washington Center
12:13 37.1850 -78.1206 34° Northeast 346 398 11,000  Level Washington Center
12:14 37.2678 -78.0503 34° Northeast 346 398 11,000  Level Washington Center
12:16 37.3702 -77.9565 36° Northeast  Level FlightAware Approximate
12:16 37.3928 -77.8556 36° Northeast 346 398 11,000  Level Washington Center
12:17 37.4531 -77.7553 53° Northeast 352 405 11,000  Level Washington Center
12:18 37.5192 -77.6631 48° Northeast 357 411 11,000  Level Washington Center
12:19 37.6058 -77.6025 29° Northeast 342 394 11,000  Level Washington Center
12:20 37.6922 -77.5469 27° Northeast 342 394 11,000  Level Washington Center
12:21 37.7786 -77.4861 29° Northeast 347 399 11,000  Level Washington Center
12:22 37.8672 -77.4358 24° Northeast 347 399 11,000  Level Washington Center
12:23 37.9636 -77.4064 14° North 347 399 11,000  Level Washington Center
12:24 38.0661 -77.3800 11° North 342 394 11,000  Level Washington Center
12:25 38.1603 -77.3506 14° North 337 388 11,000  Level Washington Center
12:26 38.2547 -77.3156 16° North 337 388 11,000  Level Washington Center
12:27 38.3350 -77.2433 35° Northeast 342 394 11,000  Level Washington Center
12:28 38.4050 -77.1497 46° Northeast 347 399 11,000  Level Washington Center
12:29 38.4750 -77.0583 46° Northeast 352 405 11,000  Level Washington Center
12:30 38.5450 -76.9642 46° Northeast 357 411 11,000  Level Washington Center
12:31 38.6147 -76.8697 47° Northeast 357 411 11,000  Level Washington Center
12:32 38.6844 -76.7753 47° Northeast 363 418 11,000  Level Washington Center
12:33 38.7561 -76.6858 44° Northeast 363 418 11,000  Level Washington Center
12:35 38.8667 -76.5500 44° Northeast 362 417 11,000  Level Potomac TRACON
12:36 38.9500 -76.4667 38° Northeast 358 412 11,000 420 Level Potomac TRACON
12:37 39.0167 -76.4000 38° Northeast 350 403 11,900 480 Climbing Potomac TRACON
12:38 39.0833 -76.3000 49° Northeast 361 415 12,000  Climbing Potomac TRACON
12:39 39.1667 -76.2167 38° Northeast 366 421 12,000  Level Potomac TRACON
12:40 39.2333 -76.1333 44° Northeast 369 425 12,000  Level Potomac TRACON
12:42 39.4000 -75.9667 38° Northeast 369 425 12,000  Level Philadelphia TRACON
12:43 39.5000 -75.8833 33° Northeast 369 425 12,100  Climbing Philadelphia TRACON
12:44 39.5833 -75.8000 38° Northeast 370 426 12,100  Level Philadelphia TRACON
12:45 39.6667 -75.7167 38° Northeast 369 425 12,100 -60 Level Philadelphia TRACON
12:46 39.7500 -75.6500 32° Northeast 372 428 12,000  Descending Philadelphia TRACON
12:47 39.8333 -75.5667 38° Northeast 374 430 12,100  Climbing Philadelphia TRACON
12:48 39.9167 -75.4833 37° Northeast 375 432 12,100  Level Philadelphia TRACON
12:49 40.0167 -75.4000 33° Northeast 371 427 12,100 -60 Level Philadelphia TRACON
12:50 40.1000 -75.3333 31° Northeast 372 428 12,000  Descending Philadelphia TRACON
12:51 40.1667 -75.2500 44° Northeast 373 429 12,100 -480 Climbing Philadelphia TRACON
12:52 40.2500 -75.1833 31° Northeast 342 394 11,100 -1,440 Descending Philadelphia TRACON
12:53 40.3333 -75.1000 37° Northeast 297 342 8,900 -1,680 Descending New York TRACON
12:54 40.3833 -75.0167 52° Northeast 281 323 7,400 -1,080 Descending New York TRACON
12:55 40.4333 -74.9500 45° Northeast 278 320 6,900 -900 Descending New York TRACON
12:56 40.4833 -74.8833 45° Northeast 266 306 5,700 -1,320 Descending New York TRACON
12:57 40.5333 -74.8000 52° Northeast 259 298 4,300 -1,380 Descending New York TRACON
12:58 40.5500 -74.7167 75° East 240 276 3,000 -660 Descending New York TRACON
12:59 40.5833 -74.6333 62° Northeast 236 272 3,000  Level New York TRACON
13:00 40.6000 -74.5667 72° East 240 276 3,000 -300 Level New York TRACON
13:01 40.6167 -74.4833 75° East 244 281 2,400 -480 Descending New York TRACON
13:02 40.6500 -74.4000 62° Northeast 198 228 2,000 -240 Descending New York TRACON
13:03 40.6667 -74.3333 72° East 191 220 2,000  Level New York TRACON
13:04 40.7000 -74.2833 49° Northeast 179 206 2,000 -180 Level New York TRACON
13:05 40.7333 -74.2333 49° Northeast 189 217 1,700 -300 Descending New York TRACON
13:06 40.7667 -74.1833 49° Northeast 186 214 1,400 -180 Descending New York TRACON
13:07 40.8000 -74.1333 49° Northeast 192 221 1,400 -420 Level New York TRACON
13:08 40.8333 -74.1000 37° Northeast 149 171 600 -840 Descending New York TRACON
13:10 40.8501 -74.0608 57° Northeast  Level Estimated
13:17 40.8501 -74.0608 57° Northeast  Level Estimated